sat.trackr.live / text

‹ back to catalog

STARLINK-30568

NORAD 58051 · 2023-158A

PAYLOAD ACTIVE UNKNOWN

§ Identity

Operator
Country
US
Launch date
2023-10-13
Launch site
AFETR
Launch vehicle
Mass (kg)
RCS (m²)

Purposes: comms

External: N2YO · Heavens-Above · Gunter

§ Orbital elements

Epoch: 2026-09-20T08:02:06.101376Z

Period
94.27 min
Inclination
43.0053°
Eccentricity
0.0001294
Mean motion
15.27579725 rev/d
Perigee alt
482.2 km
Apogee alt
483.9 km
Semi-major
6,861.2 km
B*
-1.9623e-6
RAAN
8.2054°
Arg perigee
250.0323°
Mean anomaly
110.0389°
Rev number
16,332

§ Raw data

STARLINK-305681 58051U 23158A   26263.33479284 -.00000316  00000+0 -19623-5 0  99942 58051  43.0053   8.2054 0001294 250.0323 110.0389 15.27579725163323

JSON: /api/v1/satellites/58051 · /tle

For live sub-satellite position, see the globe view (requires WebGL).

§ Visibility from observer

Set your observer location to see the next 7 days of passes ≥ 10°. The values pass through the URL so the page stays shareable.

No JS? Fill the form by hand. The geolocation button needs JavaScript.